Weather History for Willmar, MN

Change the Weather History Date:

Thursday, July 4, 2013

  Actual Average (KLJF) Record (KLJF)
Temperature  
Mean Temperature 76 °F -  
Max Temperature 91 °F 82 °F 101 °F (1990)
Min Temperature 62 °F 60 °F 41 °F (1967)
Cooling Degree Days 12    
Growing Degree Days 26 (Base 50)    
Moisture  
Dew Point 51 °F    
Average Humidity 42    
Maximum Humidity 73    
Minimum Humidity 20    
Precipitation  
Precipitation 0.00 in - - ()
Sea Level Pressure  
Sea Level Pressure 29.89 in    
Wind  
Wind Speed 5 mph (SSE)    
Max Wind Speed 13 mph    
Max Gust Speed 21 mph    
Visibility 10 miles    
Events      
Averages and records for this station are not official NWS values.
T = Trace of Precipitation, MM = Missing Value Source: NWS Daily Summary

Daily Weather History Graph

Daily Weather History Graph

Search for Another Location

Airport:

Trip Planner

Search our weather history database for the weather conditions in past years. The results will help you decide how hot, cold, wet, or windy it might be!

Date:

Astronomy

Jul. 04, 2013 Rise Set
Actual Time 5:39 AM CDT 9:10 PM CDT
Civil Twilight 5:02 AM CDT 9:47 PM CDT
Nautical Twilight 4:13 AM CDT 10:36 PM CDT
Astronomical Twilight 3:09 AM CDT 11:39 PM CDT
Moon 3:00 AM CDT (7/4) 6:12 PM CDT (7/4)
Length of Visible Light 16h 45m
Length of Day
15h 31m
Waning Crescent, 11% of the Moon is Illuminated
Jul 4
Waning Crescent
Jul 8
New
Jul 15
First Quarter
Jul 22
Full
Jul 29
Last Quarter

Hourly Weather History & Observations

Time (CDT) Temp. Heat Index Dew Point Humidity Pressure Visibility Wind Dir Wind Speed Gust Speed Precip Events Conditions
12:15 AM 68.0 °F - 51.8 °F 56% 29.97 in 10.0 mi SE 4.6 mph - N/A   Clear
12:35 AM 68.0 °F - 51.8 °F 56% 29.96 in 10.0 mi SE 5.8 mph - N/A   Clear
12:55 AM 68.0 °F - 50.0 °F 52% 29.96 in 10.0 mi SE 4.6 mph - N/A   Clear
1:15 AM 68.0 °F - 51.8 °F 56% 29.96 in 10.0 mi SE 4.6 mph - N/A   Scattered Clouds
1:35 AM 68.0 °F - 51.8 °F 56% 29.95 in 10.0 mi SE 4.6 mph - N/A   Mostly Cloudy
1:55 AM 69.8 °F - 51.8 °F 53% 29.95 in 10.0 mi SE 4.6 mph - N/A   Scattered Clouds
2:15 AM 69.8 °F - 51.8 °F 53% 29.95 in 10.0 mi SE 4.6 mph - N/A   Mostly Cloudy
2:35 AM 69.8 °F - 51.8 °F 53% 29.94 in 10.0 mi SE 5.8 mph - N/A   Mostly Cloudy
2:55 AM 66.2 °F - 51.8 °F 60% 29.94 in 10.0 mi SE 5.8 mph - N/A   Scattered Clouds
3:15 AM 66.2 °F - 51.8 °F 60% 29.94 in 10.0 mi SE 5.8 mph - N/A   Scattered Clouds
3:35 AM 66.2 °F - 51.8 °F 60% 29.94 in 10.0 mi SE 5.8 mph - N/A   Clear
3:55 AM 66.2 °F - 51.8 °F 60% 29.94 in 10.0 mi SE 5.8 mph - N/A   Clear
4:15 AM 66.2 °F - 51.8 °F 60% 29.94 in 10.0 mi SE 6.9 mph - N/A   Clear
4:35 AM 66.2 °F - 51.8 °F 60% 29.94 in 10.0 mi SE 4.6 mph - N/A   Clear
4:55 AM 64.4 °F - 51.8 °F 64% 29.94 in 10.0 mi Calm Calm - N/A   Scattered Clouds
5:15 AM 64.4 °F - 53.6 °F 68% 29.94 in 10.0 mi Calm Calm - N/A   Scattered Clouds
5:35 AM 62.6 °F - 53.6 °F 72% 29.94 in 10.0 mi SE 4.6 mph - N/A   Scattered Clouds
5:55 AM 62.6 °F - 53.6 °F 72% 29.94 in 10.0 mi Calm Calm - N/A   Clear
6:15 AM 62.6 °F - 53.6 °F 72% 29.94 in 10.0 mi SE 3.5 mph - N/A   Clear
6:35 AM 64.4 °F - 53.6 °F 68% 29.94 in 10.0 mi SE 3.5 mph - N/A   Clear
6:55 AM 64.4 °F - 55.4 °F 73% 29.94 in 10.0 mi Calm Calm - N/A   Clear
7:15 AM 66.2 °F - 55.4 °F 68% 29.94 in 10.0 mi SSE 3.5 mph - N/A   Clear
7:35 AM 69.8 °F - 55.4 °F 60% 29.94 in 10.0 mi SSE 4.6 mph - N/A   Clear
7:55 AM 71.6 °F - 55.4 °F 57% 29.93 in 10.0 mi Calm Calm - N/A   Clear
8:15 AM 71.6 °F - 55.4 °F 57% 29.94 in 10.0 mi Calm Calm - N/A   Clear
8:35 AM 73.4 °F - 55.4 °F 53% 29.94 in 10.0 mi South 4.6 mph - N/A   Clear
8:56 AM 75.2 °F - 57.2 °F 53% 29.93 in 10.0 mi SSE 5.8 mph - N/A   Clear
9:15 AM 77.0 °F - 55.4 °F 47% 29.92 in 10.0 mi SSE 4.6 mph - N/A   Clear
9:35 AM 78.8 °F - 55.4 °F 44% 29.92 in 10.0 mi SSE 5.8 mph - N/A   Clear
9:56 AM 78.8 °F - 55.4 °F 44% 29.92 in 10.0 mi South 4.6 mph - N/A   Clear
10:15 AM 80.6 °F 80.5 °F 55.4 °F 42% 29.92 in 10.0 mi South 6.9 mph - N/A   Clear
10:35 AM 80.6 °F 80.5 °F 55.4 °F 42% 29.91 in 10.0 mi South 4.6 mph - N/A   Clear
10:56 AM 82.4 °F 81.4 °F 53.6 °F 37% 29.91 in 10.0 mi SSW 5.8 mph - N/A   Clear
11:15 AM 82.4 °F 81.4 °F 53.6 °F 37% 29.90 in 10.0 mi SSW 3.5 mph - N/A   Clear
11:35 AM 84.2 °F 82.8 °F 53.6 °F 35% 29.90 in 10.0 mi South 5.8 mph - N/A   Clear
11:56 AM 84.2 °F - 51.8 °F 33% 29.90 in 10.0 mi SSW 6.9 mph - N/A   Clear
12:15 PM 86.0 °F 84.2 °F 53.6 °F 33% 29.89 in 10.0 mi SSW 6.9 mph - N/A   Clear
12:35 PM 87.8 °F - 51.8 °F 29% 29.89 in 10.0 mi SSW 8.1 mph - N/A   Clear
12:56 PM 87.8 °F - 51.8 °F 29% 29.89 in 10.0 mi South 6.9 mph - N/A   Clear
1:15 PM 87.8 °F - 48.2 °F 25% 29.88 in 10.0 mi SSE 11.5 mph - N/A   Clear
1:35 PM 89.6 °F - 48.2 °F 24% 29.88 in 10.0 mi South 9.2 mph - N/A   Unknown
1:56 PM 89.6 °F - 48.2 °F 24% 29.87 in 10.0 mi SSW 9.2 mph - N/A   Unknown
2:15 PM 89.6 °F - 46.4 °F 22% 29.87 in 10.0 mi South 6.9 mph 20.7 mph N/A   Unknown
2:35 PM 89.6 °F - 44.6 °F 21% 29.86 in 10.0 mi South 5.8 mph 17.3 mph N/A   Unknown
2:56 PM 89.6 °F - 44.6 °F 21% 29.86 in 10.0 mi SSW 8.1 mph - N/A   Unknown
3:15 PM 91.4 °F - 44.6 °F 20% 29.85 in 10.0 mi South 12.7 mph 18.4 mph N/A   Unknown
3:35 PM 91.4 °F - 46.4 °F 21% 29.85 in 10.0 mi South 8.1 mph - N/A   Unknown
3:56 PM 89.6 °F - 44.6 °F 21% 29.85 in 10.0 mi SSW 8.1 mph 16.1 mph N/A   Unknown
4:15 PM 91.4 °F - 44.6 °F 20% 29.85 in 10.0 mi South 10.4 mph 19.6 mph N/A   Unknown
4:35 PM 89.6 °F - 44.6 °F 21% 29.85 in 10.0 mi SSW 5.8 mph - N/A   Unknown
4:56 PM 89.6 °F - 46.4 °F 22% 29.85 in 10.0 mi South 9.2 mph 19.6 mph N/A   Unknown
5:15 PM 89.6 °F - 46.4 °F 22% 29.84 in 10.0 mi South 4.6 mph - N/A   Unknown
5:35 PM 91.4 °F - 44.6 °F 20% 29.84 in 10.0 mi SSW 11.5 mph - N/A   Unknown
5:56 PM 89.6 °F - 44.6 °F 21% 29.84 in 10.0 mi South 10.4 mph 18.4 mph N/A   Unknown
6:15 PM 89.6 °F - 46.4 °F 22% 29.84 in 10.0 mi SSW 9.2 mph - N/A   Unknown
6:35 PM 87.8 °F - 46.4 °F 24% 29.83 in 10.0 mi SSW 5.8 mph - N/A   Unknown
6:56 PM 87.8 °F - 46.4 °F 24% 29.83 in 10.0 mi SSW 6.9 mph - N/A   Unknown
7:15 PM 87.8 °F - 48.2 °F 25% 29.83 in 10.0 mi South 5.8 mph - N/A   Unknown
7:35 PM 87.8 °F - 51.8 °F 29% 29.83 in 10.0 mi South 3.5 mph - N/A   Unknown
7:56 PM 86.0 °F - 50.0 °F 29% 29.83 in 10.0 mi South 4.6 mph - N/A   Clear
8:15 PM 84.2 °F - 51.8 °F 33% 29.83 in 10.0 mi South 4.6 mph - N/A   Clear
8:35 PM 84.2 °F - 51.8 °F 33% 29.83 in 10.0 mi South 3.5 mph - N/A   Clear
8:56 PM 84.2 °F - 51.8 °F 33% 29.83 in 10.0 mi South 4.6 mph - N/A   Clear
9:15 PM 82.4 °F - 51.8 °F 35% 29.83 in 10.0 mi SSE 3.5 mph - N/A   Clear
9:35 PM 82.4 °F 81.4 °F 53.6 °F 37% 29.83 in 10.0 mi SSE 4.6 mph - N/A   Clear
9:54 PM 82.4 °F - 51.8 °F 35% 29.85 in 10.0 mi Calm Calm - N/A   Clear
10:15 PM 80.6 °F 80.3 °F 53.6 °F 39% 29.86 in 10.0 mi SSE 5.8 mph - N/A   Clear
10:35 PM 78.8 °F - 53.6 °F 42% 29.86 in 10.0 mi SSE 3.5 mph - N/A   Clear
10:55 PM 78.8 °F - 55.4 °F 44% 29.86 in 10.0 mi SSE 6.9 mph - N/A   Clear
11:15 PM 78.8 °F - 53.6 °F 42% 29.86 in 10.0 mi SSE 4.6 mph - N/A   Clear
11:35 PM 78.8 °F - 51.8 °F 39% 29.86 in 10.0 mi SSE 6.9 mph - N/A   Clear
11:55 PM 78.8 °F - 51.8 °F 39% 29.86 in 10.0 mi SSE 8.1 mph - N/A   Clear